[[{"header":{"parameterUnit":"m.s-1","parameterCategory":1,"la1":30.2991,"la2":30.254,"lo1":-89.0895,"lo2":-89.0444,"dy":0.0017,"dx":0.0017,"nx":28,"ny":28,"refTime":"2025-11-21T03:00:00:Z","depth":0,"parameterNumber":2,"parameterNumberName":"U-component_of_WINDS"},"data":[0,0,0,0,0,0,0,0,0,0,0,0,0,0,0,0,0,0,0,0,0,0,0,0,0,0,0,0,0,0,0,0,0,0,0,0,0,0,0,0,0,0,0,0,0,0,0,0,0,0,0,0,0,0,0,0,0,0,-3.1832,-3.1832,0,-3.1902,-3.1902,-3.1903,-3.1873,-3.1872,-3.187,-3.1868,-3.1939,-3.1943,-3.1946,0,0,0,0,0,0,0,0,0,0,0,0,0,-3.1671,-3.1674,-3.1832,-3.1832,-3.1833,-3.1901,-3.1902,-3.1903,-3.1874,-3.1872,-3.187,-3.1868,-3.1938,-3.1942,-3.1946,0,0,0,0,0,0,0,0,0,0,0,0,0,-3.1741,-3.1675,-3.1831,-3.1827,-3.1827,-3.1901,-3.1902,-3.1904,-3.1874,-3.1871,-3.1869,-3.1867,-3.1937,-3.1942,-3.1947,-3.203,0,0,-3.1963,-3.1965,0,0,0,0,0,0,0,0,-3.1737,-3.1746,-3.1827,-3.1827,-3.1828,-3.1876,-3.1872,-3.1946,-3.1875,-3.1856,-3.1868,-3.1865,-3.192,-3.1927,-3.1945,-3.2033,-3.2036,-3.1963,-3.1966,-3.1969,-3.197,0,0,0,0,0,0,0,-3.1732,-3.1743,-3.1859,-3.1828,-3.1828,-3.1821,-3.1828,-3.1886,-3.1902,-3.1858,-3.1856,-3.1864,-3.192,-3.194,-3.1947,-3.2037,-3.1963,-3.1968,-3.1971,-3.1973,-3.2194,-3.2197,0,0,0,0,0,0,-3.1727,-3.1739,-3.1857,-3.1861,-3.1775,-3.1826,-3.1834,-3.1863,-3.1901,-3.1904,-3.1866,-3.1863,-3.1933,-3.1941,-3.1949,-3.2047,-3.1968,-3.1973,-3.1976,-3.2191,-3.2195,-3.2198,0,0,0,0,0,0,-3.1724,-3.1738,-3.1854,-3.18,-3.1814,-3.1831,-3.1865,-3.1866,-3.1886,-3.1907,-3.191,-3.1884,-3.1931,-3.1942,-3.2009,-3.2049,-3.1976,-3.198,-3.2188,-3.2192,-3.2196,-3.2244,0,0,0,0,0,0,-3.1719,-3.1737,-3.1769,-3.1801,-3.1817,-3.1914,-3.1867,-3.1869,-3.1895,-3.1891,-3.1925,-3.1928,-3.193,-3.2002,-3.2015,-3.2055,-3.1984,-3.2185,-3.219,-3.2195,-3.2239,-3.2249,-3.2258,0,0,0,0,0,-3.1714,-3.178,-3.1771,-3.1785,-3.1858,-3.1916,-3.1926,-3.1926,-3.1899,-3.193,-3.1944,-3.1927,-3.2043,-3.2009,-3.2023,-3.2065,-3.2182,-3.2188,-3.2195,-3.2234,-3.2247,-3.2258,0,0,0,0,0,0,-3.1752,-3.1784,-3.1774,-3.1853,-3.1882,-3.1911,-3.1951,-3.194,-3.1978,-3.1972,-3.1971,-3.1979,-3.2049,-3.2064,-3.2026,-3.2147,-3.2108,-3.2117,-3.2134,-3.2146,-3.2155,-3.2149,-3.1989,0,0,0,0,0,-3.177,-3.1815,-3.184,-3.1907,-3.1922,-3.1935,-3.196,-3.1958,-3.1988,-3.2001,-3.2019,-3.2049,-3.2092,-3.212,-3.2161,-3.2241,-3.2247,-3.2277,-3.2287,-3.2295,-3.2302,-3.2344,-3.2357,-3.2218,-3.2218,-3.2218,0,0,-3.1806,-3.1829,-3.1858,-3.1915,-3.1938,-3.1984,-3.1945,-3.1996,-3.203,-3.2008,-3.2073,-3.2088,-3.2121,-3.2195,-3.2228,-3.2209,-3.2342,-3.2303,-3.2309,-3.2312,-3.2352,-3.2365,-3.2377,-3.2222,-3.2222,-3.2221,0,0,-3.1896,-3.1919,-3.1976,-3.2,-3.2034,-3.2042,-3.2056,-3.2087,-3.2095,-3.216,-3.2144,-3.2185,-3.2259,-3.2283,-3.2304,-3.2403,-3.2388,-3.2416,-3.2466,-3.2507,-3.2518,-3.2527,-3.256,-3.2573,-3.2424,-3.2424,-3.2424,0,-3.1937,-3.2007,-3.2007,-3.2059,-3.2084,-3.2067,-3.2124,-3.2147,-3.2193,-3.221,-3.2189,-3.2281,-3.2302,-3.238,-3.2404,-3.2423,-3.2438,-3.2412,-3.2516,-3.2526,-3.2535,-3.2566,-3.2579,-3.2427,-3.2427,-3.2427,-3.2426,0,-3.2055,-3.2103,-3.2145,-3.219,-3.222,-3.2274,-3.2282,-3.2312,-3.2308,-3.2317,-3.2383,-3.2408,-3.2452,-3.2471,-3.2468,-3.2549,-3.2536,-3.2516,-3.2477,-3.2551,-3.2581,-3.2593,-3.2432,-3.2431,-3.243,-3.2429,0,0,-3.217,-3.2214,-3.2229,-3.2249,-3.2285,-3.2322,-3.2375,-3.2419,-3.2444,-3.2477,-3.252,-3.2583,-3.2564,-3.2589,-3.2588,-3.2624,-3.2698,-3.2599,-3.26,-3.2615,-3.2787,-3.2801,-3.2815,-3.2689,-3.2692,-3.2694,-3.2784,0,-3.2262,-3.2355,-3.2356,-3.2442,-3.2485,-3.2469,-3.2515,-3.2542,-3.2553,-3.2591,-3.2602,-3.2646,-3.2619,-3.2633,-3.2669,-3.2682,-3.2732,-3.2676,-3.2728,-3.273,-3.2719,-3.2831,-3.2846,-3.2929,-3.2795,-3.2798,-3.2799,0,-3.2381,-3.2416,-3.2506,-3.2535,-3.2553,-3.2594,-3.2634,-3.2671,-3.2701,-3.2706,-3.2733,-3.2726,-3.278,-3.274,-3.2813,-3.2774,-3.2796,-3.2806,-3.2809,-3.2812,-3.2768,-3.2835,-3.2956,-3.2968,-3.2818,-3.2816,-3.2815,0,-3.2453,-3.2524,-3.2586,-3.2603,-3.2639,-3.2668,-3.2685,-3.2712,-3.2738,-3.2773,-3.2789,-3.283,-3.2851,-3.2882,-3.2886,-3.2858,-3.2959,-3.292,-3.2963,-3.2963,-3.2983,-3.2982,-3.3108,-3.3001,-3.3001,-3.3001,-3.3,0,-3.2554,-3.2609,-3.2619,-3.2657,-3.2718,-3.2719,-3.2779,-3.2793,-3.2817,-3.2857,-3.2846,-3.2884,-3.2887,-3.2926,-3.293,-3.2988,-3.2999,-3.3003,-3.3003,-3.3003,-3.3002,-3.3016,-3.3009,-3.3004,-3.3003,-3.3003,-3.3002,0,-3.2645,-3.2654,-3.272,-3.2749,-3.2757,-3.28,-3.2824,-3.286,-3.2869,-3.292,-3.2932,-3.2946,-3.2991,-3.2998,-3.3051,-3.3053,-3.3122,-3.3118,-3.3112,-3.3111,-3.3152,-3.3147,-3.329,-3.3308,-3.3192,-3.3193,-3.3194,0,-3.2708,-3.2749,-3.2782,-3.2808,-3.2825,-3.2867,-3.2893,-3.2896,-3.2924,-3.296,-3.2991,-3.3035,-3.307,-3.3142,-3.3156,-3.3196,-3.3191,-3.3238,-3.3197,-3.3195,-3.3189,-3.3186,-3.3189,-3.3245,-3.3247,-3.3248,-3.3248,0,-3.2817,-3.282,-3.2858,-3.2897,-3.2928,-3.296,-3.2989,-3.3011,-3.3017,-3.3048,-3.3094,-3.3121,-3.3174,-3.3217,-3.3256,-3.3272,-3.3261,-3.3262,-3.3273,-3.3272,-3.3267,-3.3268,-3.3132,-3.3258,-3.3257,-3.3256,-3.3256,-3.3255,-3.2895,-3.293,-3.2958,-3.3001,-3.3023,-3.3051,-3.3085,-3.3098,-3.3136,-3.318,-3.3179,-3.3228,-3.3256,-3.3308,-3.3327,-3.3365,-3.3349,-3.3367,-3.3371,-3.3375,-3.3377,-3.3262,-3.3372,-3.3372,-3.3372,-3.3372,-3.3371,0,-3.3002,-3.3019,-3.3058,-3.3099,-3.3132,-3.3119,-3.3151,-3.3179,-3.3223,-3.325,-3.3284,-3.3335,-3.3376,-3.3394,-3.3435,-3.3461,-3.3457,-3.3472,-3.3469,-3.3472,-3.339,-3.3375,-3.3474,-3.3474,-3.3474,-3.3474,-3.3474,-3.3474,-3.3062,-3.312,-3.3126,-3.3195,-3.3212,-3.326,-3.3279,-3.3304,-3.3325,-3.3382,-3.3417,-3.3428,-3.3451,-3.3493,-3.353,-3.3534,-3.3548,-3.3565,-3.3566,-3.3489,-3.3478,-3.3468,-3.3454,-3.3568,-3.3569,-3.3645,-3.3646,-3.3646]},{"header":{"parameterUnit":"m.s-1","parameterCategory":1,"la1":30.2991,"la2":30.254,"lo1":-89.0895,"lo2":-89.0444,"dy":0.0017,"dx":0.0017,"nx":28,"ny":28,"refTime":"2025-11-21T03:00:00:Z","depth":0,"parameterNumber":3,"parameterNumberName":"V-component_of_WINDS"},"data":[0,0,0,0,0,0,0,0,0,0,0,0,0,0,0,0,0,0,0,0,0,0,0,0,0,0,0,0,0,0,0,0,0,0,0,0,0,0,0,0,0,0,0,0,0,0,0,0,0,0,0,0,0,0,0,0,0,0,0.4486,0.4486,0,0.4551,0.4552,0.4552,0.4604,0.4604,0.4605,0.4605,0.4674,0.4675,0.4677,0,0,0,0,0,0,0,0,0,0,0,0,0,0.4408,0.4409,0.4485,0.4486,0.4487,0.4551,0.4552,0.4552,0.4604,0.4604,0.4605,0.4605,0.4674,0.4675,0.4677,0,0,0,0,0,0,0,0,0,0,0,0,0,0.4454,0.4409,0.4485,0.452,0.4524,0.455,0.4552,0.4553,0.4604,0.4604,0.4605,0.4606,0.4673,0.4675,0.4677,0.4675,0,0,0.4683,0.4684,0,0,0,0,0,0,0,0,0.4452,0.4457,0.4514,0.4518,0.4522,0.457,0.455,0.4594,0.4603,0.4573,0.4605,0.4606,0.4639,0.4644,0.4655,0.4678,0.4681,0.4684,0.4685,0.4686,0.4686,0,0,0,0,0,0,0,0.4448,0.4455,0.4511,0.4515,0.452,0.4534,0.4541,0.4558,0.4601,0.4576,0.458,0.4587,0.4641,0.4652,0.4657,0.4682,0.4684,0.4685,0.4687,0.4687,0.4708,0.4708,0,0,0,0,0,0,0.4439,0.4451,0.4509,0.4513,0.4488,0.4534,0.4543,0.4554,0.4601,0.4609,0.4586,0.4589,0.4649,0.4654,0.4659,0.4661,0.4686,0.4688,0.4689,0.4709,0.4708,0.4708,0,0,0,0,0,0,0.4437,0.4444,0.4507,0.4484,0.4493,0.4535,0.4547,0.4555,0.4566,0.4609,0.4617,0.4589,0.4649,0.4656,0.4671,0.4664,0.4689,0.469,0.471,0.4709,0.4708,0.4663,0,0,0,0,0,0,0.4435,0.4443,0.4442,0.4483,0.4494,0.4516,0.4547,0.4555,0.4569,0.4573,0.4614,0.4622,0.465,0.4667,0.4673,0.4667,0.4692,0.4711,0.4709,0.4708,0.4665,0.466,0.4656,0,0,0,0,0,0.4432,0.4427,0.4441,0.4448,0.4493,0.4516,0.4522,0.4555,0.4568,0.4568,0.4596,0.462,0.4663,0.4668,0.4675,0.467,0.4711,0.471,0.4708,0.4667,0.4661,0.4656,0,0,0,0,0,0,0.4384,0.4433,0.445,0.4457,0.4482,0.4524,0.4525,0.4547,0.4569,0.4572,0.4613,0.4621,0.4632,0.4652,0.4657,0.4671,0.4691,0.469,0.4657,0.4652,0.4647,0.4643,0.4694,0,0,0,0,0,0.4374,0.4388,0.443,0.4432,0.4444,0.4482,0.4493,0.4516,0.4544,0.4555,0.4584,0.461,0.463,0.4642,0.4662,0.4668,0.4679,0.4668,0.4663,0.4659,0.4659,0.4665,0.4661,0.4703,0.4703,0.4703,0,0,0.4354,0.4382,0.4389,0.4424,0.4445,0.446,0.4491,0.4504,0.4515,0.4557,0.4573,0.4595,0.4627,0.4637,0.4643,0.4655,0.465,0.4658,0.4654,0.4656,0.4663,0.4659,0.4656,0.4702,0.4702,0.4702,0,0,0.4325,0.4347,0.4353,0.4374,0.4406,0.4432,0.4433,0.4472,0.4488,0.4504,0.4536,0.4551,0.4584,0.4606,0.4621,0.4601,0.4625,0.4607,0.4584,0.4589,0.4586,0.4584,0.4578,0.4575,0.4606,0.4606,0.4606,0,0.4296,0.4318,0.4353,0.4364,0.4379,0.4417,0.4424,0.4443,0.448,0.449,0.4502,0.4545,0.4569,0.4586,0.4581,0.4592,0.4596,0.4603,0.4584,0.4581,0.458,0.4575,0.4572,0.4604,0.4604,0.4604,0.4604,0,0.4282,0.4297,0.4297,0.4332,0.4348,0.4356,0.4393,0.4404,0.4426,0.4451,0.4468,0.4498,0.4526,0.4531,0.4553,0.4552,0.4558,0.4576,0.4597,0.4573,0.4569,0.4567,0.46,0.4601,0.4602,0.4602,0,0,0.4225,0.4279,0.4279,0.4296,0.4334,0.4347,0.4358,0.4385,0.4394,0.4419,0.4431,0.4458,0.4475,0.4493,0.4517,0.4522,0.4506,0.454,0.4541,0.4534,0.4508,0.4495,0.4492,0.4522,0.4521,0.4521,0.4506,0,0.4203,0.4224,0.4256,0.4267,0.4282,0.4319,0.4329,0.4354,0.4378,0.4395,0.4421,0.444,0.4461,0.4472,0.4478,0.4506,0.4501,0.4508,0.4534,0.4534,0.4526,0.4489,0.4475,0.4459,0.4504,0.4504,0.4504,0,0.418,0.4203,0.4216,0.4254,0.4262,0.427,0.4298,0.4313,0.4343,0.436,0.438,0.4406,0.4421,0.444,0.4462,0.4465,0.4478,0.4494,0.4494,0.4498,0.4518,0.4494,0.4455,0.4453,0.4501,0.4502,0.4502,0,0.4139,0.4172,0.4185,0.4198,0.4243,0.4248,0.4267,0.4298,0.4313,0.4337,0.4347,0.4373,0.4387,0.4407,0.4441,0.4451,0.446,0.448,0.4475,0.4474,0.4476,0.4476,0.4439,0.4482,0.4482,0.4482,0.4482,0,0.4112,0.4118,0.4167,0.4174,0.4184,0.422,0.4228,0.4251,0.4278,0.4292,0.4325,0.4337,0.438,0.4398,0.4424,0.4439,0.4445,0.446,0.4467,0.4458,0.4456,0.4467,0.447,0.4482,0.4482,0.4482,0.4482,0,0.4067,0.41,0.4116,0.4157,0.4168,0.4172,0.4209,0.4218,0.4243,0.426,0.4266,0.4307,0.4329,0.4364,0.4397,0.4415,0.4426,0.4437,0.4416,0.442,0.4414,0.4414,0.4384,0.4383,0.4425,0.4424,0.4424,0,0.4048,0.4054,0.4096,0.4107,0.4125,0.4143,0.4158,0.4194,0.4208,0.4243,0.4249,0.4274,0.4296,0.4331,0.4364,0.439,0.4402,0.439,0.4406,0.4397,0.4404,0.4403,0.4405,0.4386,0.4386,0.4385,0.4385,0,0.4012,0.4028,0.4047,0.4073,0.4089,0.4111,0.4135,0.4142,0.4184,0.4199,0.4222,0.4239,0.4273,0.4298,0.4328,0.435,0.4375,0.4379,0.438,0.437,0.4358,0.4366,0.4407,0.438,0.438,0.4381,0.4381,0.4381,0.398,0.3988,0.4019,0.404,0.4061,0.4083,0.4094,0.4121,0.414,0.417,0.4191,0.4213,0.4245,0.4288,0.4308,0.4327,0.4338,0.4338,0.4338,0.4338,0.4335,0.4354,0.4332,0.4333,0.4333,0.4333,0.4333,0,0.3947,0.3968,0.3987,0.4019,0.4036,0.4057,0.4084,0.4098,0.4117,0.4143,0.4164,0.4192,0.4216,0.4251,0.4278,0.4287,0.4299,0.4293,0.4293,0.4298,0.4323,0.432,0.4283,0.4283,0.4283,0.4283,0.4283,0.4283,0.3931,0.3945,0.3965,0.399,0.4012,0.4034,0.4048,0.4069,0.409,0.4119,0.4139,0.4161,0.4192,0.4222,0.4246,0.4256,0.4265,0.4255,0.4269,0.4292,0.4296,0.4301,0.4299,0.4257,0.4257,0.4243,0.4243,0.4242]}]]